Location: ????????
(55.6333°N, 37.7000°E)
Time: 02:38:29
(UTC+00:00)

CZ-2C R/B - Pass Details

Date: 19 May 2025
Orbit: 782 x 867 km, 98.4° (Epoch: 13 June)

Event Time Altitude Azimuth Distance (km) Brightness Sun altitude
Exits shadow 20:55:02 - 119° (ESE) 2,824 5.1 -14.1°
Reaches altitude 10° 20:56:24 10° 112° (ESE) 2,349 4.7 -14.1°
Maximum altitude 21:00:42 27° 56° (NE) 1,464 4.3 -14.2°
Drops below altitude 10° 21:05:00 10° 360° (N) 2,355 6.5 -14.3°
Sets 21:07:37 0° 349° (NNW) 3,290 7.7 -14.3°
